Location: Mohawk View
(42.7837°N, 73.7885°W)
Time: 13:08:21
(UTC+00:00)

Cosmos 1937 Rocket - Pass Details

Date: 17 June 2021
Orbit: 746 x 781 km, 74.0° (Epoch: 26 July)

Event Time Altitude Azimuth Distance (km) Brightness Sun altitude
Rises 07:22:58 0° 331° (NNW) 3,274 7.1 -15.7°
Reaches altitude 10° 07:25:31 10° 323° (NW) 2,342 6.2 -15.4°
Maximum altitude 07:30:20 36° 259° (WSW) 1,224 4.2 -14.9°
Enters shadow 07:33:00 22° 209° (SSW) 1,648 4.6 -14.6°
